FW5120 Weather Reports


Display with metric or nautical units.
time (UTC)temp
F
wind
direction
speed
MPH
gust
MPH
rain 1hr
in
rain 24hr
in
rain mn
in
humidity
%
barometer
mb
20260505060049 61 267 1.0 5.0 0.00 0.00 0.00 75 1016.1
20260505054607 58 263 1.0 3.0 0.00 0.00 0.00 80 1016.1
20260505053056 56 280 0.0 3.0 0.00 0.00 0.00 81 1016.1
20260505051539 54 328 0.0 2.0 0.00 0.00 0.00 86 1016.1
20260505041531 46 270 0.0 1.0 0.00 0.00 0.00 91 1016.2
20260505040031 46 270 0.0 1.0 0.00 0.00 0.00 91 1016.0
20260505034530 46 270 0.0 1.0 0.00 0.00 0.00 91 1016.0
20260505033029 46 270 0.0 2.0 0.00 0.00 0.00 91 1016.1
20260505031541 46 270 0.0 2.0 0.00 0.00 0.00 90 1016.0
20260505030027 47 250 0.0 1.0 0.00 0.00 0.00 90 1016.1
20260505024534 47 250 0.0 2.0 0.00 0.00 0.00 90 1016.2
20260505023028 47 250 0.0 1.0 0.00 0.00 0.00 90 1016.3
20260505021526 48 250 0.0 1.0 0.00 0.00 0.00 90 1016.4
20260505020030 47 250 0.0 3.0 0.00 0.00 0.00 91 1016.4
20260505014527 46 250 0.0 2.0 0.00 0.00 0.00 91 1016.5
20260505013024 46 250 0.0 2.0 0.00 0.00 0.00 91 1016.5
20260505011530 46 250 0.0 1.0 0.00 0.00 0.00 90 1016.5
20260505010017 46 250 0.0 1.0 0.00 0.00 0.00 90 1016.6
20260505004534 46 250 0.0 2.0 0.00 0.00 0.00 90 1016.6
20260505003015 46 248 0.0 2.0 0.00 0.00 0.00 90 1016.9
20260505001515 46 248 0.0 1.0 0.00 0.00 0.00 90 1017.0
20260505000022 46 248 0.0 1.0 0.00 0.00 0.00 89 1017.0
20260504234509 47 248 0.0 1.0 0.00 0.00 0.00 89 1017.2
20260504233008 47 248 0.0 1.0 0.00 0.00 0.00 89 1017.2
20260504231505 47 248 0.0 1.0 0.00 0.00 0.00 88 1017.2
20260504230005 48 250 1.0 2.0 0.00 0.00 0.00 88 1017.2
20260504224501 48 250 0.0 2.0 0.00 0.00 0.00 87 1017.3
20260504223105 48 250 0.0 1.0 0.00 0.00 0.00 86 1017.5
20260504221605 49 249 0.0 2.0 0.00 0.00 0.00 85 1017.5
20260504220058 50 249 0.0 1.0 0.00 0.00 0.00 84 1017.5
20260504214556 50 250 0.0 3.0 0.00 0.00 0.00 84 1017.5
20260504213053 51 251 0.0 1.0 0.00 0.00 0.00 82 1017.6
20260504211552 52 251 0.0 1.0 0.00 0.00 0.00 79 1017.6
20260504210054 54 251 0.0 1.0 0.00 0.00 0.00 76 1017.5
20260504204555 56 251 0.0 1.0 0.00 0.00 0.00 72 1017.5
20260504203101 56 251 1.0 4.0 0.00 0.00 0.00 71 1017.4
20260504201551 57 259 0.0 3.0 0.00 0.00 0.00 71 1017.3
20260504200050 59 259 0.0 0.0 0.00 0.00 0.00 66 1017.3
20260504194549 60 257 0.0 0.0 0.00 0.00 0.00 63 1017.2
20260504193049 60 248 0.0 0.0 0.00 0.00 0.00 62 1017.2
20260504191548 62 219 0.0 5.0 0.00 0.00 0.00 60 1017.1
20260504190048 63 201 2.0 9.0 0.00 0.00 0.00 57 1016.9
20260504184548 65 249 2.0 9.0 0.00 0.00 0.00 54 1016.8
20260504183047 65 248 1.0 7.0 0.00 0.00 0.00 54 1016.6
20260504181549 66 225 1.0 8.0 0.00 0.00 0.00 53 1016.4
20260504180046 67 246 4.0 7.0 0.00 0.00 0.00 51 1016.4
20260504174545 69 297 5.0 9.0 0.00 0.00 0.00 49 1016.1
20260504173045 70 272 4.0 10.0 0.00 0.00 0.00 49 1016.1
20260504171644 70 269 4.0 9.0 0.00 0.00 0.00 47 1016.0
20260504100103 73 111 0.0 4.0 0.00 0.00 0.00 57 1019.1
20260504081541 67 18 1.0 6.0 0.00 0.00 0.00 68 1019.8